Date String (YYYY-MM-DD hh:mm:ss) UTC,Instrument flags,Ambient pressure (hPa),Sample flow (lpm),Bypass flow (lpm),Sample temperature (°C),Ambient temperature (°C),ASC tube jacket temperature (°C),LED temperature (°C),Box temperature (°C),Sample RH (%),Span deviation,Mass concentration (μg/m³),Mass concentration (μg/m³),Mass concentration (μg/m³)
DateTimeUTC,F1_M11,P_M11,Q1_M11,Q2_M11,T1_M11,T2_M11,T3_M11,T4_M11,T5_M11,U1_M11,ZSPAN_M11,X2_M11,X0_M11,X1_M11
2023-02-17 03:00:00,,0827.8,5.01,0.00,22.4,20.9,00.0,31.2,24.0,07.3,0000.0,0004.09,0007.44,0003.58
2023-02-17 03:01:00,,0827.9,5.00,0.00,22.3,20.7,00.0,31.2,23.9,07.3,0000.0,0004.07,0007.35,0003.57
2023-02-17 03:02:00,,0827.8,5.02,0.00,22.3,20.5,00.0,31.2,23.9,07.3,0000.0,0004.02,0007.00,0003.56
2023-02-17 03:03:00,,0827.9,4.94,0.00,22.3,20.4,00.0,31.2,23.8,07.3,0000.0,0003.99,0006.92,0003.54
2023-02-17 03:04:00,,0827.9,4.97,0.00,22.2,20.3,00.0,31.2,23.7,07.3,0000.0,0003.98,0006.89,0003.54
2023-02-17 03:05:00,,0827.9,5.02,0.00,22.2,20.3,00.0,31.2,23.7,07.3,0000.0,0003.97,0006.81,0003.53
2023-02-17 03:06:00,,0827.9,5.01,0.00,22.2,21.1,00.0,31.1,23.9,07.3,0000.0,0003.97,0006.78,0003.54
2023-02-17 03:07:00,,0827.9,5.04,0.00,22.3,22.3,00.0,31.0,24.2,07.3,0000.0,0003.93,0006.72,0003.52
2023-02-17 03:08:00,,0827.9,5.01,0.00,22.5,23.1,00.0,31.0,24.5,07.2,0000.0,0003.87,0006.78,0003.49
2023-02-17 03:09:00,,0827.9,5.05,0.00,22.5,22.9,00.0,31.1,24.5,07.1,0000.0,0003.83,0007.36,0003.45
2023-02-17 03:10:00,,0827.9,4.97,0.00,22.5,22.3,00.0,31.2,24.3,07.1,0000.0,0003.80,0007.14,0003.43
2023-02-17 03:11:00,,0827.8,4.96,0.00,22.5,21.7,00.0,31.2,24.2,07.0,0000.0,0003.77,0006.96,0003.42
2023-02-17 03:12:00,,0827.8,5.01,0.00,22.5,21.2,00.0,31.2,24.1,06.9,0000.0,0003.74,0007.20,0003.41
2023-02-17 03:13:00,,0827.8,4.99,0.00,22.4,21.0,00.0,31.3,24.0,06.9,0000.0,0003.72,0007.37,0003.39
2023-02-17 03:14:00,,0827.9,5.00,0.00,22.4,20.8,00.0,31.2,23.9,06.9,0000.0,0003.70,0007.34,0003.39
2023-02-17 03:15:00,,0827.8,5.02,0.00,22.3,20.5,00.0,31.2,23.8,06.9,0000.0,0003.70,0007.37,0003.37
2023-02-17 03:16:00,,0828.0,5.01,0.00,22.3,20.4,00.0,31.2,23.7,06.9,0000.0,0003.68,0007.69,0003.35
2023-02-17 03:17:00,,0827.9,5.03,0.00,22.2,20.3,00.0,31.2,23.6,06.9,0000.0,0003.70,0007.80,0003.34
2023-02-17 03:18:00,,0827.9,4.98,0.00,22.2,20.8,00.0,31.1,23.8,06.9,0000.0,0003.68,0007.79,0003.32
2023-02-17 03:19:00,,0827.9,4.99,0.00,22.3,21.8,00.0,31.1,24.1,06.9,0000.0,0003.71,0008.05,0003.32
2023-02-17 03:20:00,,0827.9,5.03,0.00,22.4,22.7,00.0,31.1,24.4,06.9,0000.0,0003.75,0007.74,0003.32
2023-02-17 03:21:00,,0828.0,5.03,0.00,22.5,22.9,00.0,31.1,24.5,06.9,0000.0,0003.73,0007.70,0003.32
2023-02-17 03:22:00,,0827.9,4.99,0.00,22.5,22.2,00.0,31.2,24.3,06.9,0000.0,0003.71,0007.68,0003.31
2023-02-17 03:23:00,,0828.0,5.00,0.00,22.5,21.7,00.0,31.2,24.2,07.0,0000.0,0003.70,0007.58,0003.29
2023-02-17 03:24:00,,0828.0,4.97,0.00,22.4,21.3,00.0,31.2,24.1,07.0,0000.0,0003.70,0007.71,0003.29
2023-02-17 03:25:00,,0827.9,4.97,0.00,22.4,21.0,00.0,31.2,24.0,07.1,0000.0,0003.69,0007.78,0003.29
2023-02-17 03:26:00,,0828.0,5.01,0.00,22.3,20.7,00.0,31.2,23.8,07.1,0000.0,0003.71,0007.85,0003.29
2023-02-17 03:27:00,,0828.0,5.02,0.00,22.3,20.6,00.0,31.2,23.7,07.0,0000.0,0003.72,0007.55,0003.30
2023-02-17 03:28:00,,0828.0,5.00,0.00,22.2,20.5,00.0,31.2,23.6,07.0,0000.0,0003.70,0007.47,0003.31
2023-02-17 03:29:00,,0828.0,4.99,0.00,22.2,20.4,00.0,31.2,23.6,07.0,0000.0,0003.76,0007.59,0003.33
2023-02-17 03:30:00,,0828.0,5.00,0.00,22.2,21.2,00.0,31.1,23.9,07.0,0000.0,0003.79,0007.34,0003.34
2023-02-17 03:31:00,,0828.0,5.00,0.00,22.3,22.2,00.0,31.1,24.2,06.9,0000.0,0003.72,0006.91,0003.32
2023-02-17 03:32:00,,0828.1,5.03,0.00,22.4,23.0,00.0,31.1,24.4,06.8,0000.0,0003.71,0006.88,0003.32
2023-02-17 03:33:00,,0828.0,4.96,0.00,22.5,22.8,00.0,31.1,24.4,06.7,0000.0,0003.71,0006.87,0003.32
2023-02-17 03:34:00,,0828.1,4.98,0.00,22.5,22.2,00.0,31.2,24.3,06.7,0000.0,0003.75,0006.97,0003.33
2023-02-17 03:35:00,,0828.0,5.01,0.00,22.5,21.6,00.0,31.2,24.1,06.7,0000.0,0003.80,0006.68,0003.33
2023-02-17 03:36:00,,0828.0,4.99,0.00,22.4,21.2,00.0,31.2,24.0,06.7,0000.0,0003.84,0006.82,0003.33
2023-02-17 03:37:00,,0828.1,5.00,0.00,22.3,20.9,00.0,31.2,23.9,06.7,0000.0,0003.79,0006.53,0003.32
2023-02-17 03:38:00,,0828.0,5.01,0.00,22.3,20.7,00.0,31.2,23.8,06.7,0000.0,0003.79,0006.59,0003.32
2023-02-17 03:39:00,,0828.0,5.00,0.00,22.2,20.5,00.0,31.2,23.7,06.7,0000.0,0003.77,0006.53,0003.31
2023-02-17 03:40:00,,0828.0,4.98,0.00,22.2,20.3,00.0,31.2,23.6,06.7,0000.0,0003.71,0006.33,0003.30
2023-02-17 03:41:00,,0828.0,4.97,0.00,22.1,20.4,00.0,31.2,23.6,06.7,0000.0,0003.64,0006.03,0003.28
2023-02-17 03:42:00,,0828.0,4.97,0.00,22.2,21.5,00.0,31.1,23.9,06.7,0000.0,0003.65,0006.18,0003.29
2023-02-17 03:43:00,,0828.0,5.01,0.00,22.3,22.4,00.0,31.1,24.2,06.7,0000.0,0003.66,0006.96,0003.29
2023-02-17 03:44:00,,0828.0,4.97,0.00,22.5,23.1,00.0,31.1,24.4,06.6,0000.0,0003.67,0007.10,0003.30
2023-02-17 03:45:00,,0828.0,4.99,0.00,22.5,22.7,00.0,31.2,24.4,06.6,0000.0,0003.67,0007.02,0003.30
2023-02-17 03:46:00,,0828.0,4.99,0.00,22.5,22.0,00.0,31.2,24.2,06.6,0000.0,0003.65,0007.13,0003.30
2023-02-17 03:47:00,,0828.0,4.97,0.00,22.4,21.5,00.0,31.2,24.1,06.6,0000.0,0003.61,0007.08,0003.28
2023-02-17 03:48:00,,0828.0,5.02,0.00,22.4,21.1,00.0,31.2,24.0,06.6,0000.0,0003.63,0007.13,0003.28
2023-02-17 03:49:00,,0828.0,5.00,0.00,22.3,20.8,00.0,31.2,23.9,06.6,0000.0,0003.64,0007.42,0003.27
2023-02-17 03:50:00,,0828.1,4.99,0.00,22.3,20.6,00.0,31.2,23.8,06.6,0000.0,0003.66,0007.71,0003.26
2023-02-17 03:51:00,,0828.1,5.00,0.00,22.2,20.5,00.0,31.2,23.6,06.7,0000.0,0003.67,0007.74,0003.26
2023-02-17 03:52:00,,0828.1,5.00,0.00,22.2,20.4,00.0,31.2,23.6,06.7,0000.0,0003.70,0007.83,0003.27
2023-02-17 03:53:00,,0828.1,5.02,0.00,22.2,20.7,00.0,31.1,23.7,06.6,0000.0,0003.70,0008.20,0003.27
2023-02-17 03:54:00,,0828.1,5.01,0.00,22.3,21.7,00.0,31.1,24.0,06.6,0000.0,0003.69,0007.97,0003.26
2023-02-17 03:55:00,,0828.1,5.10,0.00,22.4,22.6,00.0,31.1,24.3,06.6,0000.0,0003.70,0007.84,0003.26
2023-02-17 03:56:00,,0828.1,5.00,0.00,22.5,23.0,00.0,31.1,24.4,06.5,0000.0,0003.70,0008.20,0003.26
2023-02-17 03:57:00,,0828.1,5.02,0.00,22.5,22.4,00.0,31.2,24.3,06.5,0000.0,0003.71,0008.28,0003.26
2023-02-17 03:58:00,,0828.1,4.99,0.00,22.4,21.8,00.0,31.2,24.1,06.5,0000.0,0003.69,0008.14,0003.26
2023-02-17 03:59:00,,0828.1,5.00,0.00,22.4,21.3,00.0,31.2,24.0,06.5,0000.0,0003.70,0008.23,0003.26
